| time (UTC) | temp C | wind direction | speed KPH | gust KPH | rain 1hr cm | rain 24hr cm | rain mn cm | humidity % | barometer mb |
| 20260504211539 | 13 | 284 | 9.7 | 19.3 | 0.00 | 0.03 | 0.03 | 67 | 1004.1 |
| 20260504210038 | 12 | 301 | 6.4 | 14.5 | 0.00 | 0.03 | 0.03 | 68 | 1004.1 |
| 20260504204536 | 13 | 280 | 11.3 | 29.0 | 0.00 | 0.08 | 0.03 | 65 | 1003.8 |
| 20260504203037 | 12 | 265 | 12.9 | 27.4 | 0.00 | 0.08 | 0.03 | 67 | 1003.6 |
| 20260504201539 | 13 | 312 | 12.9 | 24.1 | 0.00 | 0.08 | 0.03 | 67 | 1003.5 |
| 20260504200045 | 12 | 281 | 11.3 | 25.7 | 0.00 | 0.08 | 0.03 | 68 | 1003.5 |
| 20260504194537 | 12 | 282 | 9.7 | 27.4 | 0.00 | 0.15 | 0.03 | 69 | 1003.5 |
| 20260504193036 | 12 | 269 | 12.9 | 25.7 | 0.00 | 0.15 | 0.03 | 70 | 1003.5 |
| 20260504191542 | 12 | 256 | 12.9 | 27.4 | 0.00 | 0.15 | 0.03 | 70 | 1003.5 |
| 20260504190036 | 11 | 203 | 14.5 | 29.0 | 0.00 | 0.15 | 0.03 | 71 | 1003.6 |
| 20260504184553 | 11 | 261 | 12.9 | 30.6 | 0.00 | 0.30 | 0.03 | 72 | 1003.8 |
| 20260504183039 | 11 | 279 | 14.5 | 24.1 | 0.00 | 0.30 | 0.03 | 75 | 1003.9 |
| 20260504181538 | 10 | 311 | 6.4 | 16.1 | 0.00 | 0.30 | 0.03 | 83 | 1004.1 |
| 20260504180035 | 10 | 264 | 6.4 | 14.5 | 0.00 | 0.30 | 0.03 | 83 | 1004.2 |
| 20260504174539 | 10 | 286 | 6.4 | 16.1 | 0.03 | 0.46 | 0.03 | 83 | 1004.1 |
| 20260504173037 | 9 | 272 | 6.4 | 16.1 | 0.03 | 0.46 | 0.03 | 83 | 1004.0 |
| 20260504171536 | 9 | 292 | 8.0 | 16.1 | 0.03 | 0.46 | 0.03 | 84 | 1004.0 |
| 20260504081538 | 0 | 296 | 4.8 | 12.9 | 0.00 | 1.78 | 0.00 | 81 | 1004.7 |
| 20260504044546 | 2 | 309 | 6.4 | 12.9 | 0.00 | 1.80 | 0.00 | 81 | 1003.5 |
| 20260504043039 | 2 | 305 | 3.2 | 12.9 | 0.00 | 1.80 | 0.00 | 81 | 1003.4 |
| 20260504041539 | 2 | 300 | 4.8 | 12.9 | 0.00 | 1.80 | 0.00 | 82 | 1003.3 |
| 20260504040045 | 2 | 283 | 6.4 | 11.3 | 0.00 | 1.80 | 0.00 | 82 | 1003.2 |
| 20260504034538 | 2 | 293 | 6.4 | 14.5 | 0.00 | 1.80 | 1.80 | 82 | 1003.0 |
| 20260504033051 | 2 | 299 | 4.8 | 12.9 | 0.00 | 1.80 | 1.80 | 83 | 1003.0 |
| 20260504031543 | 2 | 298 | 3.2 | 14.5 | 0.00 | 1.80 | 1.80 | 83 | 1002.9 |
| 20260504030038 | 2 | 305 | 4.8 | 12.9 | 0.00 | 1.80 | 1.80 | 83 | 1002.8 |
| 20260504024553 | 2 | 315 | 6.4 | 12.9 | 0.00 | 1.80 | 1.80 | 83 | 1002.6 |
| 20260504023046 | 3 | 306 | 6.4 | 14.5 | 0.00 | 1.80 | 1.80 | 84 | 1002.5 |
| 20260504021548 | 3 | 285 | 6.4 | 16.1 | 0.00 | 1.80 | 1.80 | 85 | 1002.4 |
| 20260504020042 | 3 | 283 | 6.4 | 16.1 | 0.00 | 1.80 | 1.80 | 85 | 1002.3 |
| 20260504014540 | 4 | 289 | 6.4 | 16.1 | 0.00 | 1.80 | 1.80 | 88 | 1002.4 |
| 20260504013046 | 4 | 348 | 6.4 | 20.9 | 0.00 | 1.80 | 1.80 | 93 | 1002.2 |
| 20260504011543 | 4 | 312 | 4.8 | 14.5 | 0.00 | 1.80 | 1.80 | 95 | 1002.1 |
| 20260504010043 | 4 | 306 | 1.6 | 9.7 | 0.00 | 1.80 | 1.80 | 94 | 1001.9 |
| 20260504004546 | 5 | 0 | 3.2 | 9.7 | 0.00 | 1.80 | 1.80 | 93 | 1001.8 |
| 20260504003038 | 5 | 315 | 3.2 | 9.7 | 0.00 | 1.80 | 1.80 | 93 | 1001.5 |
| 20260504001540 | 5 | 311 | 4.8 | 12.9 | 0.00 | 1.80 | 1.80 | 94 | 1001.2 |
| 20260504000044 | 5 | 352 | 3.2 | 12.9 | 0.00 | 1.80 | 1.80 | 94 | 1001.3 |
| 20260503234539 | 5 | 329 | 3.2 | 11.3 | 0.00 | 1.80 | 1.80 | 94 | 1001.0 |
| 20260503233038 | 5 | 254 | 4.8 | 14.5 | 0.00 | 1.80 | 1.80 | 93 | 1000.9 |
| 20260503231540 | 5 | 322 | 4.8 | 14.5 | 0.00 | 1.80 | 1.80 | 93 | 1000.8 |
| 20260503230050 | 5 | 298 | 3.2 | 14.5 | 0.00 | 1.80 | 1.80 | 93 | 1000.8 |
| 20260503224543 | 5 | 326 | 4.8 | 14.5 | 0.00 | 1.80 | 1.80 | 93 | 1000.5 |
| 20260503223040 | 5 | 22 | 3.2 | 20.9 | 0.00 | 1.80 | 1.80 | 94 | 1000.5 |
| 20260503221538 | 5 | 346 | 6.4 | 24.1 | 0.00 | 1.80 | 1.80 | 94 | 1000.4 |
| 20260503220045 | 5 | 36 | 4.8 | 16.1 | 0.00 | 1.80 | 1.80 | 94 | 1000.5 |
| 20260503214541 | 5 | 5 | 3.2 | 16.1 | 0.00 | 1.80 | 1.80 | 95 | 1000.3 |
| 20260503213043 | 5 | 335 | 3.2 | 20.9 | 0.03 | 1.80 | 1.80 | 95 | 1000.3 |